User: anonymous   Login
Location: Namasale
(1.5000°N, 32.6167°E)
Time: 06:23:47
(UTC+00:00)
Language:

SR - Orbit

View from above orbital plane
View from above orbital plane
View from above satellite
View from above satellite

Ground track
Ground track

The orbit data is extracted from the following two-line orbital elements,

1 00046U 60007B   21109.57827576  .00000069  00000-0  36271-4 0  9991
2 00046  66.6894 299.3103 0217571 263.2788  94.3519 14.49387867183478
Epoch (UTC): 19 April 2021 13:52:43
Eccentricity: 0.0217571
inclination: 66.6894°
perigee height: 573 km
apogee height: 882 km
right ascension of ascending node: 299.3103°
argument of perigee: 263.2788°
revolutions per day: 14.49387867
mean anomaly at epoch: 94.3519°
orbit number at epoch: 18347

The dashed part of the orbit path shows where the satellite is in the earth's shadow,  

DLR